,,,PA_Meas_PMT16A,,PR_Meas_QMR101_102,,RH_Meas_QMH101,,SR_Meas_QMS101,,TA_Meas_QMH101,,GenWind,,GenWind,
date,time,status,PA,status,PR,status,RH,status,SR,status,TA,status,DirAvg,status,SpdAvg,
2014-07-11, 00:00:05,VALID,1009.28,VALID,0,VALID,104,VALID,0,VALID,24.415,VALID,122,VALID,0,
2014-07-11, 00:01:05,VALID,1009.27,VALID,0,VALID,104,VALID,0.112112,VALID,24.3956,VALID,122,VALID,0,
2014-07-11, 00:02:05,VALID,1009.25,VALID,0,VALID,104,VALID,0.112112,VALID,24.3956,VALID,122,VALID,0,
2014-07-11, 00:03:05,VALID,1009.26,VALID,0,VALID,104,VALID,0.112112,VALID,24.3547,VALID,122,VALID,0,
2014-07-11, 00:04:05,VALID,1009.24,VALID,0,VALID,104,VALID,0,VALID,24.3547,VALID,122,VALID,0,
2014-07-11, 00:05:05,VALID,1009.22,VALID,0,VALID,104,VALID,0,VALID,24.3761,VALID,122,VALID,0,
2014-07-11, 00:06:05,VALID,1009.23,VALID,0,VALID,104,VALID,0.112112,VALID,24.3761,VALID,122,VALID,0,
2014-07-11, 00:07:05,VALID,1009.24,VALID,0,VALID,104,VALID,0.112112,VALID,24.3742,VALID,122,VALID,0,
2014-07-11, 00:08:05,VALID,1009.19,VALID,0,VALID,104,VALID,0,VALID,24.3956,VALID,122,VALID,0,
2014-07-11, 00:09:05,VALID,1009.18,VALID,0,VALID,104,VALID,0,VALID,24.3956,VALID,122,VALID,0,
2014-07-11, 00:10:05,VALID,1009.17,VALID,0,VALID,104,VALID,0,VALID,24.415,VALID,122,VALID,0,
2014-07-11, 00:11:05,VALID,1009.17,VALID,0,VALID,104,VALID,0,VALID,24.3937,VALID,122,VALID,0,
2014-07-11, 00:12:05,VALID,1009.16,VALID,0,VALID,104,VALID,0,VALID,24.3956,VALID,122,VALID,0,
2014-07-11, 00:13:05,VALID,1009.15,VALID,0,VALID,104,VALID,0.112112,VALID,24.3761,VALID,122,VALID,0,
2014-07-11, 00:14:05,VALID,1009.14,VALID,0,VALID,104,VALID,0,VALID,24.3371,VALID,122,VALID,0,
2014-07-11, 00:15:05,VALID,1009.12,VALID,0,VALID,104,VALID,0,VALID,24.3371,VALID,122,VALID,0,
2014-07-11, 00:16:05,VALID,1009.14,VALID,0,VALID,104,VALID,0,VALID,24.2981,VALID,122,VALID,0,
2014-07-11, 00:17:05,VALID,1009.11,VALID,0,VALID,104,VALID,0,VALID,24.2786,VALID,122,VALID,0,
2014-07-11, 00:18:05,VALID,1009.1,VALID,0,VALID,104,VALID,0.112112,VALID,24.2786,VALID,122,VALID,0,
2014-07-11, 00:19:05,VALID,1009.12,VALID,0,VALID,104,VALID,0,VALID,24.2591,VALID,122,VALID,0,
2014-07-11, 00:20:05,VALID,1009.11,VALID,0,VALID,104,VALID,0,VALID,24.2396,VALID,122,VALID,0,
2014-07-11, 00:21:05,VALID,1009.1,VALID,0,VALID,104,VALID,0,VALID,24.2202,VALID,122,VALID,0,
2014-07-11, 00:22:05,VALID,1009.13,VALID,0,VALID,104,VALID,0,VALID,24.2007,VALID,122,VALID,0,
2014-07-11, 00:23:05,VALID,1009.11,VALID,0,VALID,104,VALID,0,VALID,24.2007,VALID,122,VALID,0,
2014-07-11, 00:24:05,VALID,1009.12,VALID,0,VALID,104,VALID,0,VALID,24.2202,VALID,122,VALID,0,
2014-07-11, 00:25:05,VALID,1009.11,VALID,0,VALID,104,VALID,0,VALID,24.2805,VALID,122,VALID,0,
2014-07-11, 00:26:05,VALID,1009.1,VALID,0,VALID,104,VALID,0,VALID,24.2591,VALID,122,VALID,0,
2014-07-11, 00:27:05,VALID,1009.09,VALID,0,VALID,104,VALID,0,VALID,24.2591,VALID,122,VALID,0,
2014-07-11, 00:28:05,VALID,1009.08,VALID,0,VALID,104,VALID,0,VALID,24.2591,VALID,122,VALID,0,
2014-07-11, 00:29:05,VALID,1009.05,VALID,0,VALID,104,VALID,0,VALID,24.2591,VALID,122,VALID,0,
2014-07-11, 00:30:05,VALID,1009.05,VALID,0,VALID,104,VALID,0,VALID,24.2591,VALID,122,VALID,0,
2014-07-11, 00:31:05,VALID,1009.04,VALID,0,VALID,104,VALID,0,VALID,24.2591,VALID,122,VALID,0,
2014-07-11, 00:32:05,VALID,1009.02,VALID,0,VALID,104,VALID,0,VALID,24.2396,VALID,122,VALID,0,
2014-07-11, 00:33:05,VALID,1009.01,VALID,0,VALID,104,VALID,0,VALID,24.2591,VALID,122,VALID,0,
2014-07-11, 00:34:05,VALID,1008.98,VALID,0,VALID,104,VALID,0,VALID,24.2786,VALID,122,VALID,0,
2014-07-11, 00:35:05,VALID,1008.98,VALID,0,VALID,104,VALID,0,VALID,24.2981,VALID,122,VALID,0,
2014-07-11, 00:36:05,VALID,1009.01,VALID,0,VALID,104,VALID,0,VALID,24.3194,VALID,122,VALID,0,
2014-07-11, 00:37:05,VALID,1009.01,VALID,0,VALID,104,VALID,0,VALID,24.3371,VALID,122,VALID,0,
2014-07-11, 00:38:05,VALID,1009.03,VALID,0,VALID,104,VALID,0,VALID,24.3371,VALID,122,VALID,0,
2014-07-11, 00:39:05,VALID,1009.03,VALID,0,VALID,104,VALID,0,VALID,24.3176,VALID,122,VALID,0,
2014-07-11, 00:40:05,VALID,1009.03,VALID,0,VALID,104,VALID,0,VALID,24.3176,VALID,122,VALID,0,
2014-07-11, 00:41:05,VALID,1009.07,VALID,0,VALID,104,VALID,0,VALID,24.3371,VALID,122,VALID,0,
2014-07-11, 00:42:05,VALID,1009.07,VALID,0,VALID,104,VALID,0,VALID,24.3176,VALID,122,VALID,0,
2014-07-11, 00:43:05,VALID,1009.09,VALID,0,VALID,104,VALID,0,VALID,24.3176,VALID,122,VALID,0,
2014-07-11, 00:44:05,VALID,1009.1,VALID,0,VALID,104,VALID,0,VALID,24.3176,VALID,122,VALID,0,
2014-07-11, 00:45:05,VALID,1009.12,VALID,0,VALID,104,VALID,0,VALID,24.3176,VALID,122,VALID,0,
2014-07-11, 00:46:05,VALID,1009.13,VALID,0,VALID,104,VALID,0,VALID,24.2963,VALID,122,VALID,0,
2014-07-11, 00:47:05,VALID,1009.15,VALID,0,VALID,104,VALID,0,VALID,24.3371,VALID,122,VALID,0,
2014-07-11, 00:48:05,VALID,1009.15,VALID,0,VALID,104,VALID,0,VALID,24.3371,VALID,122,VALID,0,
2014-07-11, 00:49:05,VALID,1009.16,VALID,0,VALID,104,VALID,0,VALID,24.3371,VALID,122,VALID,0,
2014-07-11, 00:50:05,VALID,1009.17,VALID,0,VALID,104,VALID,0,VALID,24.3566,VALID,122,VALID,0,
2014-07-11, 00:51:05,VALID,1009.17,VALID,0,VALID,104,VALID,0,VALID,24.3761,VALID,122,VALID,0,
2014-07-11, 00:52:05,VALID,1009.2,VALID,0,VALID,104,VALID,0,VALID,24.3956,VALID,122,VALID,0,
2014-07-11, 00:53:05,VALID,1009.19,VALID,0,VALID,104,VALID,0,VALID,24.3761,VALID,122,VALID,0,
2014-07-11, 00:54:05,VALID,1009.19,VALID,0,VALID,104,VALID,0,VALID,24.3956,VALID,122,VALID,0,
2014-07-11, 00:55:05,VALID,1009.16,VALID,0,VALID,104,VALID,0,VALID,24.3956,VALID,122,VALID,0,
2014-07-11, 00:56:05,VALID,1009.15,VALID,0,VALID,104,VALID,0,VALID,24.3956,VALID,122,VALID,0,
2014-07-11, 00:57:05,VALID,1009.12,VALID,0,VALID,104,VALID,0,VALID,24.4345,VALID,122,VALID,0,
2014-07-11, 00:58:05,VALID,1009.15,VALID,0,VALID,104,VALID,0,VALID,24.4559,VALID,122,VALID,0,
2014-07-11, 00:59:05,VALID,1009.12,VALID,0,VALID,104,VALID,0.112112,VALID,24.454,VALID,122,VALID,0,
2014-07-11, 01:00:05,VALID,1009.13,VALID,0,VALID,104,VALID,0,VALID,24.454,VALID,122,VALID,0,
2014-07-11, 01:01:05,VALID,1009.11,VALID,0,VALID,104,VALID,0,VALID,24.415,VALID,122,VALID,0,
2014-07-11, 01:02:05,VALID,1009.09,VALID,0,VALID,104,VALID,0.112112,VALID,24.3956,VALID,122,VALID,0,
2014-07-11, 01:03:05,VALID,1009.08,VALID,0,VALID,104,VALID,0,VALID,24.3779,VALID,122,VALID,0,
2014-07-11, 01:04:05,VALID,1009.07,VALID,0,VALID,104,VALID,0,VALID,24.3371,VALID,122,VALID,0,
2014-07-11, 01:05:05,VALID,1009.02,VALID,0,VALID,104,VALID,0,VALID,24.3371,VALID,122,VALID,0,
2014-07-11, 01:06:05,VALID,1009.01,VALID,0,VALID,104,VALID,0,VALID,24.3176,VALID,122,VALID,0,
2014-07-11, 01:07:05,VALID,1009.02,VALID,0,VALID,104,VALID,0,VALID,24.3,VALID,122,VALID,0,
2014-07-11, 01:08:05,VALID,1009,VALID,0,VALID,104,VALID,0,VALID,24.2591,VALID,122,VALID,0,
2014-07-11, 01:09:05,VALID,1009,VALID,0,VALID,104,VALID,0,VALID,24.2591,VALID,122,VALID,0,
2014-07-11, 01:10:05,VALID,1008.96,VALID,0,VALID,104,VALID,0.112112,VALID,24.2768,VALID,122,VALID,0,
2014-07-11, 01:11:05,VALID,1008.95,VALID,0,VALID,104,VALID,0.112112,VALID,24.2768,VALID,122,VALID,0,
2014-07-11, 01:12:05,VALID,1008.94,VALID,0,VALID,104,VALID,0.112112,VALID,24.2768,VALID,122,VALID,0,
2014-07-11, 01:13:05,VALID,1008.94,VALID,0,VALID,104,VALID,0.112112,VALID,24.2573,VALID,122,VALID,0,
2014-07-11, 01:14:05,VALID,1008.94,VALID,0,VALID,104,VALID,0,VALID,24.2591,VALID,122,VALID,0,
2014-07-11, 01:15:05,VALID,1008.92,VALID,0,VALID,104,VALID,0.112112,VALID,24.2573,VALID,122,VALID,0,
2014-07-11, 01:16:05,VALID,1008.91,VALID,0,VALID,104,VALID,0.112112,VALID,24.2378,VALID,122,VALID,0,
2014-07-11, 01:17:05,VALID,1008.88,VALID,0,VALID,104,VALID,0.112112,VALID,24.2183,VALID,122,VALID,0,
2014-07-11, 01:18:05,VALID,1008.87,VALID,0,VALID,104,VALID,0.112112,VALID,24.2183,VALID,122,VALID,0,
2014-07-11, 01:19:05,VALID,1008.88,VALID,0,VALID,104,VALID,0,VALID,24.2396,VALID,122,VALID,0,
2014-07-11, 01:20:05,VALID,1008.86,VALID,0,VALID,104,VALID,0.112112,VALID,24.2183,VALID,122,VALID,0,
2014-07-11, 01:21:05,VALID,1008.87,VALID,0,VALID,104,VALID,0,VALID,24.2183,VALID,122,VALID,0,
2014-07-11, 01:22:05,VALID,1008.87,VALID,0,VALID,104,VALID,0,VALID,24.2183,VALID,122,VALID,0,
2014-07-11, 01:23:05,VALID,1008.83,VALID,0,VALID,104,VALID,0.112112,VALID,24.2183,VALID,122,VALID,0,
2014-07-11, 01:24:05,VALID,1008.8,VALID,0,VALID,104,VALID,0.112112,VALID,24.1988,VALID,122,VALID,0,
2014-07-11, 01:25:05,VALID,1008.78,VALID,0,VALID,104,VALID,0,VALID,24.1812,VALID,122,VALID,0,
2014-07-11, 01:26:04,VALID,1008.77,VALID,0,VALID,104,VALID,0,VALID,24.1812,VALID,122,VALID,0,
2014-07-11, 01:27:04,VALID,1008.75,VALID,0,VALID,104,VALID,0,VALID,24.1812,VALID,122,VALID,0,
2014-07-11, 01:28:04,VALID,1008.73,VALID,0,VALID,104,VALID,0,VALID,24.2025,VALID,122,VALID,0,
2014-07-11, 01:29:04,VALID,1008.75,VALID,0,VALID,104,VALID,0,VALID,24.183,VALID,122,VALID,0,
2014-07-11, 01:30:04,VALID,1008.76,VALID,0,VALID,104,VALID,0,VALID,24.1617,VALID,122,VALID,0,
2014-07-11, 01:31:04,VALID,1008.74,VALID,0,VALID,104,VALID,0,VALID,24.1617,VALID,122,VALID,0,
2014-07-11, 01:32:04,VALID,1008.7,VALID,0,VALID,104,VALID,0,VALID,24.1617,VALID,122,VALID,0,
2014-07-11, 01:33:04,VALID,1008.71,VALID,0,VALID,104,VALID,0,VALID,24.2025,VALID,122,VALID,0,
2014-07-11, 01:34:04,VALID,1008.7,VALID,0,VALID,104,VALID,0,VALID,24.183,VALID,122,VALID,0,
2014-07-11, 01:35:04,VALID,1008.7,VALID,0,VALID,104,VALID,0,VALID,24.183,VALID,122,VALID,0,
2014-07-11, 01:36:04,VALID,1008.69,VALID,0,VALID,104,VALID,0,VALID,24.1617,VALID,122,VALID,0,
2014-07-11, 01:37:04,VALID,1008.7,VALID,0,VALID,104,VALID,0,VALID,24.1617,VALID,122,VALID,0,
2014-07-11, 01:38:04,VALID,1008.69,VALID,0,VALID,104,VALID,0,VALID,24.1422,VALID,122,VALID,0,
2014-07-11, 01:39:04,VALID,1008.68,VALID,0,VALID,104,VALID,0,VALID,24.1617,VALID,122,VALID,0,
2014-07-11, 01:40:04,VALID,1008.69,VALID,0,VALID,104,VALID,0,VALID,24.183,VALID,122,VALID,0,
2014-07-11, 01:41:04,VALID,1008.64,VALID,0,VALID,104,VALID,0,VALID,24.2025,VALID,122,VALID,0,
2014-07-11, 01:42:04,VALID,1008.61,VALID,0,VALID,104,VALID,0,VALID,24.1812,VALID,122,VALID,0,
2014-07-11, 01:43:04,VALID,1008.59,VALID,0,VALID,104,VALID,0,VALID,24.2025,VALID,122,VALID,0,
2014-07-11, 01:44:04,VALID,1008.57,VALID,0,VALID,104,VALID,0,VALID,24.2007,VALID,122,VALID,0,
2014-07-11, 01:45:04,VALID,1008.58,VALID,0,VALID,104,VALID,0,VALID,24.222,VALID,122,VALID,0,
2014-07-11, 01:46:04,VALID,1008.54,VALID,0,VALID,104,VALID,0,VALID,24.222,VALID,122,VALID,0,
2014-07-11, 01:47:04,VALID,1008.57,VALID,0,VALID,104,VALID,0,VALID,24.2007,VALID,122,VALID,0,
2014-07-11, 01:48:04,VALID,1008.55,VALID,0,VALID,104,VALID,0,VALID,24.2007,VALID,122,VALID,0,
2014-07-11, 01:49:04,VALID,1008.52,VALID,0,VALID,104,VALID,0,VALID,24.222,VALID,122,VALID,0,
2014-07-11, 01:50:04,VALID,1008.54,VALID,0,VALID,104,VALID,0,VALID,24.222,VALID,122,VALID,0,
2014-07-11, 01:51:04,VALID,1008.51,VALID,0,VALID,104,VALID,0,VALID,24.2007,VALID,122,VALID,0,
2014-07-11, 01:52:04,VALID,1008.48,VALID,0,VALID,104,VALID,0,VALID,24.222,VALID,122,VALID,0,
2014-07-11, 01:53:04,VALID,1008.46,VALID,0,VALID,104,VALID,0,VALID,24.2007,VALID,122,VALID,0,
2014-07-11, 01:54:04,VALID,1008.46,VALID,0,VALID,104,VALID,0,VALID,24.1812,VALID,122,VALID,0,
2014-07-11, 01:55:04,VALID,1008.45,VALID,0,VALID,104,VALID,0,VALID,24.183,VALID,122,VALID,0,
2014-07-11, 01:56:04,VALID,1008.43,VALID,0,VALID,104,VALID,0,VALID,24.1812,VALID,122,VALID,0,
2014-07-11, 01:57:04,VALID,1008.41,VALID,0,VALID,104,VALID,0,VALID,24.183,VALID,122,VALID,0,
2014-07-11, 01:58:04,VALID,1008.42,VALID,0,VALID,104,VALID,0,VALID,24.1617,VALID,122,VALID,0,
2014-07-11, 01:59:04,VALID,1008.44,VALID,0,VALID,104,VALID,0,VALID,24.183,VALID,122,VALID,0,
2014-07-11, 02:00:04,VALID,1008.44,VALID,0,VALID,104,VALID,0,VALID,24.1617,VALID,122,VALID,0,
2014-07-11, 02:01:04,VALID,1008.4,VALID,0,VALID,104,VALID,0,VALID,24.1617,VALID,122,VALID,0,
2014-07-11, 02:02:04,VALID,1008.4,VALID,0,VALID,104,VALID,0,VALID,24.183,VALID,122,VALID,0,
2014-07-11, 02:03:04,VALID,1008.38,VALID,0,VALID,104,VALID,0,VALID,24.183,VALID,122,VALID,0,
2014-07-11, 02:04:04,VALID,1008.36,VALID,0,VALID,104,VALID,0,VALID,24.183,VALID,122,VALID,0,
2014-07-11, 02:05:04,VALID,1008.39,VALID,0,VALID,104,VALID,0,VALID,24.1422,VALID,122,VALID,0,
2014-07-11, 02:06:04,VALID,1008.36,VALID,0,VALID,104,VALID,0,VALID,24.1635,VALID,122,VALID,0,
2014-07-11, 02:07:04,VALID,1008.38,VALID,0,VALID,104,VALID,0,VALID,24.1227,VALID,122,VALID,0,
2014-07-11, 02:08:04,VALID,1008.34,VALID,0,VALID,104,VALID,0,VALID,24.1032,VALID,122,VALID,0,
2014-07-11, 02:09:04,VALID,1008.37,VALID,0,VALID,104,VALID,0,VALID,24.0837,VALID,122,VALID,0,
2014-07-11, 02:10:04,VALID,1008.36,VALID,0,VALID,104,VALID,0,VALID,24.1051,VALID,122,VALID,0,
2014-07-11, 02:11:04,VALID,1008.32,VALID,0,VALID,104,VALID,0,VALID,24.0837,VALID,122,VALID,0,
2014-07-11, 02:12:04,VALID,1008.33,VALID,0,VALID,104,VALID,0,VALID,24.0643,VALID,122,VALID,0,
2014-07-11, 02:13:04,VALID,1008.34,VALID,0,VALID,104,VALID,0.112112,VALID,24.0643,VALID,122,VALID,0,
2014-07-11, 02:14:04,VALID,1008.31,VALID,0,VALID,104,VALID,0.112112,VALID,24.0643,VALID,122,VALID,0,
2014-07-11, 02:15:04,VALID,1008.3,VALID,0,VALID,104,VALID,0,VALID,24.0429,VALID,122,VALID,0,
2014-07-11, 02:16:04,VALID,1008.28,VALID,0,VALID,104,VALID,0,VALID,24.0448,VALID,122,VALID,0,
2014-07-11, 02:17:04,VALID,1008.25,VALID,0,VALID,104,VALID,0,VALID,24.0448,VALID,122,VALID,0,
2014-07-11, 02:18:04,VALID,1008.27,VALID,0,VALID,104,VALID,0,VALID,24.0448,VALID,122,VALID,0,
2014-07-11, 02:19:04,VALID,1008.26,VALID,0,VALID,104,VALID,0,VALID,24.0448,VALID,122,VALID,0,
2014-07-11, 02:20:04,VALID,1008.26,VALID,0,VALID,104,VALID,0,VALID,24.0643,VALID,122,VALID,0,
2014-07-11, 02:21:04,VALID,1008.3,VALID,0,VALID,104,VALID,0,VALID,24.0643,VALID,122,VALID,0,
2014-07-11, 02:22:04,VALID,1008.3,VALID,0,VALID,104,VALID,0,VALID,24.0643,VALID,122,VALID,0,
2014-07-11, 02:23:04,VALID,1008.29,VALID,0,VALID,104,VALID,0.112112,VALID,24.0643,VALID,122,VALID,0,
2014-07-11, 02:24:04,VALID,1008.3,VALID,0,VALID,104,VALID,0,VALID,24.0661,VALID,122,VALID,0,
2014-07-11, 02:25:04,VALID,1008.31,VALID,0,VALID,104,VALID,0,VALID,24.0837,VALID,122,VALID,0,
2014-07-11, 02:26:04,VALID,1008.3,VALID,0,VALID,104,VALID,0,VALID,24.0643,VALID,122,VALID,0,
2014-07-11, 02:27:04,VALID,1008.28,VALID,0,VALID,104,VALID,0.112112,VALID,24.0643,VALID,122,VALID,0,
2014-07-11, 02:28:04,VALID,1008.26,VALID,0,VALID,104,VALID,0.112112,VALID,24.0643,VALID,122,VALID,0,
2014-07-11, 02:29:04,VALID,1008.27,VALID,0,VALID,104,VALID,0.112112,VALID,24.0837,VALID,122,VALID,0,
2014-07-11, 02:30:04,VALID,1008.3,VALID,0,VALID,104,VALID,0,VALID,24.0643,VALID,122,VALID,0,
2014-07-11, 02:31:04,VALID,1008.29,VALID,0,VALID,104,VALID,0,VALID,24.0643,VALID,122,VALID,0,
2014-07-11, 02:32:04,VALID,1008.29,VALID,0,VALID,104,VALID,0,VALID,24.0837,VALID,122,VALID,0,
2014-07-11, 02:33:04,VALID,1008.26,VALID,0,VALID,104,VALID,0,VALID,24.0837,VALID,122,VALID,0,
2014-07-11, 02:34:04,VALID,1008.26,VALID,0,VALID,104,VALID,0,VALID,24.0643,VALID,122,VALID,0,
2014-07-11, 02:35:04,VALID,1008.28,VALID,0,VALID,104,VALID,0.112112,VALID,24.0837,VALID,122,VALID,0,
2014-07-11, 02:36:04,VALID,1008.23,VALID,0,VALID,104,VALID,0,VALID,24.0643,VALID,122,VALID,0,
2014-07-11, 02:37:04,VALID,1008.23,VALID,0,VALID,104,VALID,0,VALID,24.0837,VALID,122,VALID,0,
2014-07-11, 02:38:04,VALID,1008.23,VALID,0,VALID,104,VALID,0,VALID,24.1032,VALID,122,VALID,0,
2014-07-11, 02:39:04,VALID,1008.23,VALID,0,VALID,104,VALID,0,VALID,24.1032,VALID,122,VALID,0,
2014-07-11, 02:40:04,VALID,1008.21,VALID,0,VALID,104,VALID,0,VALID,24.1032,VALID,122,VALID,0,
2014-07-11, 02:41:04,VALID,1008.21,VALID,0,VALID,104,VALID,0,VALID,24.1032,VALID,122,VALID,0,
2014-07-11, 02:42:04,VALID,1008.21,VALID,0,VALID,104,VALID,0,VALID,24.0837,VALID,122,VALID,0,
2014-07-11, 02:43:04,VALID,1008.22,VALID,0,VALID,104,VALID,0,VALID,24.1032,VALID,122,VALID,0,
2014-07-11, 02:44:04,VALID,1008.23,VALID,0,VALID,104,VALID,0,VALID,24.0837,VALID,122,VALID,0,
2014-07-11, 02:45:04,VALID,1008.2,VALID,0,VALID,104,VALID,0,VALID,24.0837,VALID,122,VALID,0,
2014-07-11, 02:46:04,VALID,1008.21,VALID,0,VALID,104,VALID,0,VALID,24.0837,VALID,122,VALID,0,
2014-07-11, 02:47:04,VALID,1008.19,VALID,0,VALID,104,VALID,0.112112,VALID,24.1051,VALID,122,VALID,0,
2014-07-11, 02:48:04,VALID,1008.19,VALID,0,VALID,104,VALID,0,VALID,24.0837,VALID,122,VALID,0,
2014-07-11, 02:49:04,VALID,1008.17,VALID,0,VALID,104,VALID,0,VALID,24.0837,VALID,122,VALID,0,
2014-07-11, 02:50:04,VALID,1008.19,VALID,0,VALID,104,VALID,0,VALID,24.0856,VALID,122,VALID,0,
2014-07-11, 02:51:04,VALID,1008.22,VALID,0,VALID,104,VALID,0,VALID,24.0837,VALID,122,VALID,0,
2014-07-11, 02:52:04,VALID,1008.2,VALID,0,VALID,104,VALID,0,VALID,24.0837,VALID,122,VALID,0,
2014-07-11, 02:53:04,VALID,1008.18,VALID,0,VALID,104,VALID,0,VALID,24.1245,VALID,122,VALID,0,
2014-07-11, 02:54:04,VALID,1008.18,VALID,0,VALID,104,VALID,0,VALID,24.0819,VALID,122,VALID,0,
2014-07-11, 02:55:04,VALID,1008.19,VALID,0,VALID,104,VALID,0,VALID,24.1032,VALID,122,VALID,0,
2014-07-11, 02:56:04,VALID,1008.14,VALID,0,VALID,104,VALID,0,VALID,24.1051,VALID,122,VALID,0,
2014-07-11, 02:57:04,VALID,1008.1,VALID,0,VALID,104,VALID,0.112112,VALID,24.0837,VALID,122,VALID,0,
2014-07-11, 02:58:04,VALID,1008.14,VALID,0,VALID,104,VALID,0,VALID,24.0837,VALID,122,VALID,0,
2014-07-11, 02:59:04,VALID,1008.12,VALID,0,VALID,104,VALID,0,VALID,24.0837,VALID,122,VALID,0,
2014-07-11, 03:00:04,VALID,1008.1,VALID,0,VALID,104,VALID,0,VALID,24.0837,VALID,122,VALID,0,
2014-07-11, 03:01:04,VALID,1008.13,VALID,0,VALID,104,VALID,0.112112,VALID,24.0643,VALID,122,VALID,0,
2014-07-11, 03:02:04,VALID,1008.14,VALID,0,VALID,104,VALID,0,VALID,24.0643,VALID,122,VALID,0,
2014-07-11, 03:03:04,VALID,1008.12,VALID,0,VALID,104,VALID,0,VALID,24.0448,VALID,122,VALID,0,
2014-07-11, 03:04:04,VALID,1008.1,VALID,0,VALID,104,VALID,0,VALID,24.0235,VALID,122,VALID,0,
2014-07-11, 03:05:04,VALID,1008.08,VALID,0,VALID,104,VALID,0.112112,VALID,24.0253,VALID,122,VALID,0,
2014-07-11, 03:06:04,VALID,1008.06,VALID,0,VALID,104,VALID,0.112112,VALID,24.004,VALID,122,VALID,0,
2014-07-11, 03:07:04,VALID,1008.08,VALID,0,VALID,104,VALID,0,VALID,24.0253,VALID,122,VALID,0,
2014-07-11, 03:08:04,VALID,1008.07,VALID,0,VALID,104,VALID,0,VALID,24.0253,VALID,122,VALID,0,
2014-07-11, 03:09:04,VALID,1008.06,VALID,0,VALID,104,VALID,0,VALID,24.0253,VALID,122,VALID,0,
2014-07-11, 03:10:04,VALID,1008.08,VALID,0,VALID,104,VALID,0,VALID,23.9863,VALID,122,VALID,0,
2014-07-11, 03:11:04,VALID,1008.05,VALID,0,VALID,104,VALID,0,VALID,23.9863,VALID,122,VALID,0,
2014-07-11, 03:12:04,VALID,1008.06,VALID,0,VALID,104,VALID,0,VALID,24.0076,VALID,122,VALID,0,
2014-07-11, 03:13:04,VALID,1008.05,VALID,0,VALID,104,VALID,0,VALID,23.9863,VALID,122,VALID,0,
2014-07-11, 03:14:04,VALID,1008.07,VALID,0,VALID,104,VALID,0,VALID,23.9863,VALID,122,VALID,0,
2014-07-11, 03:15:04,VALID,1008.07,VALID,0,VALID,104,VALID,0,VALID,23.9863,VALID,122,VALID,0,
2014-07-11, 03:16:04,VALID,1008.08,VALID,0,VALID,104,VALID,0,VALID,23.9881,VALID,122,VALID,0,
2014-07-11, 03:17:04,VALID,1008.1,VALID,0,VALID,104,VALID,0.112112,VALID,23.9668,VALID,122,VALID,0,
2014-07-11, 03:18:04,VALID,1008.1,VALID,0,VALID,104,VALID,0,VALID,23.9473,VALID,122,VALID,0,
2014-07-11, 03:19:04,VALID,1008.11,VALID,0,VALID,104,VALID,0,VALID,23.9473,VALID,122,VALID,0,
2014-07-11, 03:20:04,VALID,1008.09,VALID,0,VALID,104,VALID,0,VALID,23.9473,VALID,122,VALID,0,
2014-07-11, 03:21:04,VALID,1008.1,VALID,0,VALID,104,VALID,0,VALID,23.9278,VALID,122,VALID,0,
2014-07-11, 03:22:04,VALID,1008.07,VALID,0,VALID,104,VALID,0,VALID,23.9278,VALID,122,VALID,0,
2014-07-11, 03:23:04,VALID,1008.06,VALID,0,VALID,104,VALID,0,VALID,23.9278,VALID,122,VALID,0,
2014-07-11, 03:24:04,VALID,1008.05,VALID,0,VALID,104,VALID,0,VALID,23.9278,VALID,122,VALID,0,
2014-07-11, 03:25:04,VALID,1008.04,VALID,0,VALID,104,VALID,0,VALID,23.9473,VALID,122,VALID,0,
2014-07-11, 03:26:04,VALID,1008.05,VALID,0,VALID,104,VALID,0,VALID,23.9278,VALID,122,VALID,0,
2014-07-11, 03:27:04,VALID,1008.06,VALID,0,VALID,104,VALID,0,VALID,23.9473,VALID,122,VALID,0,
2014-07-11, 03:28:04,VALID,1008.03,VALID,0,VALID,104,VALID,0,VALID,23.9473,VALID,122,VALID,0,
2014-07-11, 03:29:04,VALID,1008.03,VALID,0,VALID,104,VALID,0,VALID,23.9473,VALID,122,VALID,0,
2014-07-11, 03:30:04,VALID,1008.01,VALID,0,VALID,104,VALID,0.112112,VALID,23.9668,VALID,122,VALID,0,
2014-07-11, 03:31:04,VALID,1007.99,VALID,0,VALID,104,VALID,0,VALID,23.9668,VALID,122,VALID,0,
2014-07-11, 03:32:04,VALID,1008.01,VALID,0,VALID,104,VALID,0,VALID,23.9668,VALID,122,VALID,0,
2014-07-11, 03:33:04,VALID,1008.01,VALID,0,VALID,104,VALID,0,VALID,23.9668,VALID,122,VALID,0,
2014-07-11, 03:34:04,VALID,1007.99,VALID,0,VALID,104,VALID,0,VALID,23.9668,VALID,122,VALID,0,
2014-07-11, 03:35:04,VALID,1008.01,VALID,0,VALID,104,VALID,0,VALID,23.9668,VALID,122,VALID,0,
2014-07-11, 03:36:04,VALID,1008,VALID,0,VALID,104,VALID,0,VALID,23.9881,VALID,122,VALID,0,
2014-07-11, 03:37:04,VALID,1008.01,VALID,0,VALID,104,VALID,0,VALID,23.9668,VALID,122,VALID,0,
2014-07-11, 03:38:04,VALID,1008.03,VALID,0,VALID,104,VALID,0,VALID,23.9686,VALID,122,VALID,0,
2014-07-11, 03:39:04,VALID,1008.04,VALID,0,VALID,104,VALID,0,VALID,23.9881,VALID,122,VALID,0,
2014-07-11, 03:40:04,VALID,1008.05,VALID,0,VALID,104,VALID,0,VALID,23.9473,VALID,122,VALID,0,
2014-07-11, 03:41:04,VALID,1008.06,VALID,0,VALID,104,VALID,0,VALID,23.9278,VALID,122,VALID,0,
2014-07-11, 03:42:04,VALID,1008.07,VALID,0,VALID,104,VALID,0,VALID,23.9473,VALID,122,VALID,0,
2014-07-11, 03:43:04,VALID,1008.06,VALID,0,VALID,104,VALID,0,VALID,23.9278,VALID,122,VALID,0,
2014-07-11, 03:44:04,VALID,1008.08,VALID,0,VALID,104,VALID,0,VALID,23.9686,VALID,122,VALID,0,
2014-07-11, 03:45:04,VALID,1008.04,VALID,0,VALID,104,VALID,0,VALID,23.9278,VALID,122,VALID,0,
2014-07-11, 03:46:04,VALID,1008.06,VALID,0,VALID,104,VALID,0,VALID,23.9491,VALID,122,VALID,0,
2014-07-11, 03:47:04,VALID,1008.09,VALID,0,VALID,104,VALID,0,VALID,23.9473,VALID,122,VALID,0,
2014-07-11, 03:48:04,VALID,1008.05,VALID,0,VALID,104,VALID,0,VALID,23.9278,VALID,122,VALID,0,
2014-07-11, 03:49:04,VALID,1008.04,VALID,0,VALID,104,VALID,0,VALID,23.9668,VALID,122,VALID,0,
2014-07-11, 03:50:04,VALID,1008.05,VALID,0,VALID,104,VALID,0,VALID,23.9668,VALID,122,VALID,0,
2014-07-11, 03:51:04,VALID,1008.07,VALID,0,VALID,104,VALID,0,VALID,23.9881,VALID,122,VALID,0,
2014-07-11, 03:52:04,VALID,1008.1,VALID,0,VALID,104,VALID,0,VALID,23.9668,VALID,122,VALID,0,
2014-07-11, 03:53:04,VALID,1008.15,VALID,0,VALID,104,VALID,0,VALID,23.9863,VALID,122,VALID,0,
2014-07-11, 03:54:04,VALID,1008.17,VALID,0,VALID,104,VALID,0,VALID,24.0076,VALID,122,VALID,0,
2014-07-11, 03:55:04,VALID,1008.17,VALID,0,VALID,104,VALID,0.112112,VALID,24.0058,VALID,122,VALID,0,
2014-07-11, 03:56:04,VALID,1008.18,VALID,0,VALID,104,VALID,0,VALID,24.004,VALID,122,VALID,0,
2014-07-11, 03:57:04,VALID,1008.21,VALID,0,VALID,104,VALID,0.112112,VALID,24.0448,VALID,122,VALID,0,
2014-07-11, 03:58:04,VALID,1008.18,VALID,0,VALID,104,VALID,0.112112,VALID,24.0235,VALID,122,VALID,0,
2014-07-11, 03:59:04,VALID,1008.18,VALID,0,VALID,104,VALID,0.112112,VALID,24.0429,VALID,122,VALID,0,
2014-07-11, 04:00:04,VALID,1008.23,VALID,0,VALID,104,VALID,0.112112,VALID,24.0429,VALID,122,VALID,0,
2014-07-11, 04:01:04,VALID,1008.23,VALID,0,VALID,104,VALID,0.112112,VALID,24.0643,VALID,122,VALID,0,
2014-07-11, 04:02:04,VALID,1008.22,VALID,0,VALID,104,VALID,0.112112,VALID,24.0837,VALID,122,VALID,0,
2014-07-11, 04:03:04,VALID,1008.24,VALID,0,VALID,104,VALID,0.112112,VALID,24.0819,VALID,122,VALID,0,
2014-07-11, 04:04:04,VALID,1008.22,VALID,0,VALID,104,VALID,0.112112,VALID,24.1014,VALID,122,VALID,0,
2014-07-11, 04:05:04,VALID,1008.25,VALID,0,VALID,104,VALID,0.112112,VALID,24.1014,VALID,122,VALID,0,
2014-07-11, 04:06:04,VALID,1008.23,VALID,0,VALID,104,VALID,0.112112,VALID,24.1014,VALID,122,VALID,0,